| time (UTC) | temp C | wind direction | speed KPH | gust KPH | rain 1hr cm | rain 24hr cm | rain mn cm | humidity % | barometer mb |
| 20260508131606 | 11 | 226 | 8.0 | 16.1 | 0.00 | 0.00 | 0.00 | 59 | 1013.0 |
| 20260508131106 | 11 | 200 | 1.6 | 11.3 | 0.00 | 0.00 | 0.00 | 58 | 1012.8 |
| 20260508130606 | 10 | 217 | 6.4 | 12.9 | 0.00 | 0.00 | 0.00 | 59 | 1012.9 |
| 20260508130111 | 10 | 248 | 6.4 | 14.5 | 0.00 | 0.00 | 0.00 | 60 | 1012.8 |
| 20260508125606 | 10 | 233 | 8.0 | 9.7 | 0.00 | 0.00 | 0.00 | 60 | 1012.9 |
| 20260508125106 | 10 | 239 | 0.0 | 9.7 | 0.00 | 0.00 | 0.00 | 60 | 1012.8 |
| 20260508124606 | 10 | 222 | 1.6 | 16.1 | 0.00 | 0.00 | 0.00 | 59 | 1012.8 |
| 20260508124109 | 10 | 224 | 8.0 | 16.1 | 0.00 | 0.00 | 0.00 | 60 | 1012.8 |
| 20260508123607 | 9 | 229 | 0.0 | 6.4 | 0.00 | 0.00 | 0.00 | 63 | 1012.9 |
| 20260508123106 | 9 | 231 | 1.6 | 9.7 | 0.00 | 0.00 | 0.00 | 62 | 1012.8 |
| 20260508122606 | 9 | 228 | 1.6 | 6.4 | 0.00 | 0.00 | 0.00 | 62 | 1012.8 |
| 20260508122106 | 9 | 229 | 4.8 | 14.5 | 0.00 | 0.00 | 0.00 | 63 | 1013.0 |
| 20260508121606 | 8 | 232 | 0.0 | 12.9 | 0.00 | 0.00 | 0.00 | 64 | 1013.0 |
| 20260508121106 | 8 | 235 | 8.0 | 16.1 | 0.00 | 0.00 | 0.00 | 65 | 1013.0 |
| 20260508120606 | 8 | 218 | 9.7 | 11.3 | 0.00 | 0.00 | 0.00 | 66 | 1013.0 |
| 20260508120106 | 8 | 234 | 1.6 | 14.5 | 0.00 | 0.00 | 0.00 | 67 | 1012.7 |
| 20260508115606 | 7 | 252 | 14.5 | 14.5 | 0.00 | 0.00 | 0.00 | 68 | 1012.7 |
| 20260508115106 | 7 | 194 | 8.0 | 17.7 | 0.00 | 0.00 | 0.00 | 69 | 1012.7 |
| 20260508114606 | 7 | 238 | 0.0 | 6.4 | 0.00 | 0.00 | 0.00 | 70 | 1012.6 |
| 20260508114106 | 7 | 253 | 0.0 | 4.8 | 0.00 | 0.00 | 0.00 | 72 | 1012.6 |
| 20260508113606 | 6 | 257 | 0.0 | 0.0 | 0.00 | 0.00 | 0.00 | 73 | 1012.7 |
| 20260508113106 | 6 | 257 | 0.0 | 0.0 | 0.00 | 0.00 | 0.00 | 74 | 1012.7 |
| 20260508112606 | 6 | 257 | 0.0 | 4.8 | 0.00 | 0.00 | 0.00 | 74 | 1012.6 |
| 20260508112106 | 6 | 257 | 0.0 | 0.0 | 0.00 | 0.00 | 0.00 | 74 | 1012.6 |
| 20260508111606 | 6 | 257 | 0.0 | 0.0 | 0.00 | 0.00 | 0.00 | 75 | 1012.6 |
| 20260508111109 | 6 | 257 | 0.0 | 0.0 | 0.00 | 0.00 | 0.00 | 75 | 1012.6 |
| 20260508110610 | 5 | 257 | 0.0 | 0.0 | 0.00 | 0.00 | 0.00 | 76 | 1012.6 |
| 20260508110107 | 5 | 257 | 0.0 | 0.0 | 0.00 | 0.00 | 0.00 | 76 | 1012.5 |
| 20260508105606 | 5 | 257 | 0.0 | 0.0 | 0.00 | 0.00 | 0.00 | 78 | 1012.4 |
| 20260508105106 | 5 | 257 | 0.0 | 0.0 | 0.00 | 0.00 | 0.00 | 78 | 1012.5 |
| 20260508104609 | 5 | 257 | 0.0 | 0.0 | 0.00 | 0.00 | 0.00 | 78 | 1012.4 |
| 20260508104106 | 5 | 257 | 0.0 | 0.0 | 0.00 | 0.00 | 0.00 | 78 | 1012.4 |
| 20260508103609 | 5 | 257 | 0.0 | 0.0 | 0.00 | 0.00 | 0.00 | 78 | 1012.3 |
| 20260508103106 | 5 | 257 | 0.0 | 0.0 | 0.00 | 0.00 | 0.00 | 77 | 1012.3 |
| 20260508102606 | 5 | 257 | 0.0 | 0.0 | 0.00 | 0.00 | 0.00 | 77 | 1012.3 |
| 20260508102106 | 5 | 257 | 0.0 | 1.6 | 0.00 | 0.00 | 0.00 | 77 | 1012.3 |
| 20260508101606 | 5 | 257 | 0.0 | 0.0 | 0.00 | 0.00 | 0.00 | 77 | 1012.3 |
| 20260508101109 | 5 | 257 | 0.0 | 0.0 | 0.00 | 0.00 | 0.00 | 77 | 1012.2 |
| 20260508100606 | 5 | 257 | 0.0 | 0.0 | 0.00 | 0.00 | 0.00 | 77 | 1012.2 |
| 20260508100106 | 5 | 257 | 0.0 | 0.0 | 0.00 | 0.00 | 0.00 | 77 | 1012.3 |
| 20260508095606 | 5 | 257 | 0.0 | 0.0 | 0.00 | 0.00 | 0.00 | 77 | 1012.3 |
| 20260508095106 | 5 | 257 | 0.0 | 0.0 | 0.00 | 0.00 | 0.00 | 77 | 1012.3 |
| 20260508094606 | 5 | 257 | 0.0 | 0.0 | 0.00 | 0.00 | 0.00 | 77 | 1012.4 |
| 20260508094106 | 5 | 257 | 0.0 | 0.0 | 0.00 | 0.00 | 0.00 | 77 | 1012.4 |
| 20260508093606 | 5 | 257 | 0.0 | 0.0 | 0.00 | 0.00 | 0.00 | 76 | 1012.4 |
| 20260508093106 | 5 | 257 | 0.0 | 0.0 | 0.00 | 0.00 | 0.00 | 76 | 1012.3 |
| 20260508092606 | 5 | 257 | 0.0 | 0.0 | 0.00 | 0.00 | 0.00 | 76 | 1012.4 |
| 20260508092106 | 5 | 257 | 0.0 | 0.0 | 0.00 | 0.00 | 0.00 | 75 | 1012.3 |
| 20260508091606 | 5 | 257 | 0.0 | 0.0 | 0.00 | 0.00 | 0.00 | 75 | 1012.4 |
| 20260508091106 | 5 | 257 | 0.0 | 0.0 | 0.00 | 0.00 | 0.00 | 75 | 1012.5 |
| 20260508090606 | 5 | 257 | 0.0 | 0.0 | 0.00 | 0.00 | 0.00 | 75 | 1012.5 |
| 20260508090109 | 5 | 257 | 0.0 | 0.0 | 0.00 | 0.00 | 0.00 | 75 | 1012.5 |
| 20260508085606 | 5 | 257 | 0.0 | 0.0 | 0.00 | 0.00 | 0.00 | 75 | 1012.5 |
| 20260508085106 | 5 | 257 | 0.0 | 0.0 | 0.00 | 0.00 | 0.00 | 75 | 1012.4 |
| 20260508084606 | 5 | 257 | 0.0 | 0.0 | 0.00 | 0.00 | 0.00 | 74 | 1012.4 |
| 20260508084106 | 5 | 257 | 0.0 | 0.0 | 0.00 | 0.00 | 0.00 | 74 | 1012.4 |
| 20260508083606 | 5 | 257 | 0.0 | 0.0 | 0.00 | 0.00 | 0.00 | 73 | 1012.4 |
| 20260508083111 | 6 | 257 | 0.0 | 0.0 | 0.00 | 0.00 | 0.00 | 72 | 1012.3 |
| 20260508082606 | 6 | 257 | 0.0 | 0.0 | 0.00 | 0.00 | 0.00 | 70 | 1012.3 |
| 20260508082106 | 6 | 257 | 0.0 | 0.0 | 0.00 | 0.00 | 0.00 | 69 | 1012.4 |
| 20260508081606 | 6 | 257 | 0.0 | 0.0 | 0.00 | 0.00 | 0.00 | 69 | 1012.4 |
| 20260508081106 | 6 | 257 | 0.0 | 0.0 | 0.00 | 0.00 | 0.00 | 68 | 1012.3 |
| 20260508080606 | 7 | 257 | 0.0 | 0.0 | 0.00 | 0.00 | 0.00 | 67 | 1012.4 |
| 20260508080106 | 7 | 257 | 0.0 | 0.0 | 0.00 | 0.00 | 0.00 | 66 | 1012.4 |
| 20260508075609 | 7 | 257 | 0.0 | 0.0 | 0.00 | 0.00 | 0.00 | 66 | 1012.5 |
| 20260508075109 | 7 | 257 | 0.0 | 0.0 | 0.00 | 0.00 | 0.00 | 65 | 1012.4 |
| 20260508074606 | 8 | 257 | 0.0 | 0.0 | 0.00 | 0.00 | 0.00 | 65 | 1012.4 |
| 20260508074106 | 8 | 257 | 0.0 | 0.0 | 0.00 | 0.00 | 0.00 | 64 | 1012.5 |
| 20260508073606 | 8 | 257 | 0.0 | 1.6 | 0.00 | 0.00 | 0.00 | 64 | 1012.5 |
| 20260508073109 | 8 | 257 | 0.0 | 0.0 | 0.00 | 0.00 | 0.00 | 63 | 1012.6 |
| 20260508072606 | 8 | 257 | 0.0 | 0.0 | 0.00 | 0.00 | 0.00 | 62 | 1012.7 |
| 20260508072106 | 8 | 257 | 0.0 | 0.0 | 0.00 | 0.00 | 0.00 | 62 | 1012.8 |
| 20260508071606 | 8 | 257 | 0.0 | 0.0 | 0.00 | 0.00 | 0.00 | 62 | 1012.9 |
| 20260508071106 | 8 | 257 | 0.0 | 1.6 | 0.00 | 0.00 | 0.00 | 61 | 1013.0 |
| 20260508070606 | 8 | 257 | 0.0 | 4.8 | 0.00 | 0.00 | 0.00 | 61 | 1013.0 |
| 20260508070106 | 8 | 257 | 0.0 | 4.8 | 0.00 | 0.00 | 0.00 | 61 | 1013.1 |
| 20260508065606 | 8 | 258 | 0.0 | 8.0 | 0.00 | 0.00 | 0.00 | 62 | 1013.1 |
| 20260508065106 | 8 | 263 | 1.6 | 3.2 | 0.00 | 0.00 | 0.00 | 62 | 1013.1 |
| 20260508064606 | 8 | 263 | 0.0 | 1.6 | 0.00 | 0.00 | 0.00 | 62 | 1013.2 |
| 20260508064106 | 8 | 263 | 0.0 | 3.2 | 0.00 | 0.00 | 0.00 | 61 | 1013.2 |
| 20260508063609 | 8 | 263 | 0.0 | 8.0 | 0.00 | 0.00 | 0.00 | 62 | 1013.2 |
| 20260508063106 | 8 | 265 | 3.2 | 8.0 | 0.00 | 0.00 | 0.00 | 63 | 1013.4 |
| 20260508062606 | 7 | 268 | 0.0 | 3.2 | 0.00 | 0.00 | 0.00 | 66 | 1013.2 |
| 20260508062106 | 7 | 268 | 0.0 | 0.0 | 0.00 | 0.00 | 0.00 | 66 | 1013.2 |
| 20260508061606 | 7 | 268 | 0.0 | 0.0 | 0.00 | 0.00 | 0.00 | 67 | 1013.2 |
| 20260508061109 | 7 | 268 | 0.0 | 0.0 | 0.00 | 0.00 | 0.00 | 67 | 1013.0 |
| 20260508060606 | 7 | 268 | 0.0 | 0.0 | 0.00 | 0.00 | 0.00 | 67 | 1012.9 |
| 20260508060106 | 7 | 268 | 0.0 | 0.0 | 0.00 | 0.00 | 0.00 | 67 | 1012.9 |
| 20260508055607 | 7 | 268 | 0.0 | 0.0 | 0.00 | 0.00 | 0.00 | 67 | 1012.8 |
| 20260508055107 | 7 | 268 | 0.0 | 0.0 | 0.00 | 0.00 | 0.00 | 67 | 1012.9 |
| 20260508054609 | 7 | 268 | 0.0 | 0.0 | 0.00 | 0.00 | 0.00 | 68 | 1013.1 |
| 20260508054105 | 7 | 268 | 0.0 | 0.0 | 0.00 | 0.00 | 0.00 | 69 | 1013.0 |
| 20260508053606 | 6 | 268 | 0.0 | 0.0 | 0.00 | 0.00 | 0.00 | 70 | 1013.2 |
| 20260508053106 | 6 | 268 | 0.0 | 0.0 | 0.00 | 0.00 | 0.00 | 70 | 1013.2 |
| 20260508052606 | 6 | 268 | 0.0 | 0.0 | 0.00 | 0.00 | 0.00 | 70 | 1013.1 |
| 20260508052106 | 6 | 268 | 0.0 | 0.0 | 0.00 | 0.00 | 0.00 | 71 | 1013.1 |
| 20260508051606 | 6 | 268 | 0.0 | 0.0 | 0.00 | 0.00 | 0.00 | 71 | 1013.2 |
| 20260508051107 | 6 | 268 | 0.0 | 0.0 | 0.00 | 0.00 | 0.00 | 72 | 1013.3 |
| 20260508050106 | 6 | 268 | 0.0 | 0.0 | 0.00 | 0.00 | 0.00 | 74 | 1013.3 |
| 20260508045606 | 6 | 268 | 0.0 | 0.0 | 0.00 | 0.00 | 0.00 | 76 | 1013.4 |
| 20260508045106 | 6 | 268 | 0.0 | 0.0 | 0.00 | 0.00 | 0.00 | 77 | 1013.6 |
| 20260508044606 | 6 | 268 | 0.0 | 0.0 | 0.00 | 0.00 | 0.00 | 78 | 1013.6 |
| 20260508044106 | 6 | 268 | 0.0 | 0.0 | 0.00 | 0.00 | 0.00 | 78 | 1013.5 |
| 20260508043605 | 6 | 268 | 0.0 | 0.0 | 0.00 | 0.00 | 0.00 | 78 | 1013.6 |
| 20260508043109 | 6 | 268 | 0.0 | 0.0 | 0.00 | 0.00 | 0.00 | 77 | 1013.6 |
| 20260508042606 | 6 | 268 | 0.0 | 0.0 | 0.00 | 0.00 | 0.00 | 77 | 1013.6 |
| 20260508042109 | 6 | 268 | 0.0 | 0.0 | 0.00 | 0.00 | 0.00 | 77 | 1013.5 |
| 20260508041606 | 6 | 268 | 0.0 | 0.0 | 0.00 | 0.00 | 0.00 | 77 | 1013.5 |
| 20260508041106 | 6 | 268 | 0.0 | 0.0 | 0.00 | 0.00 | 0.00 | 78 | 1013.5 |
| 20260508040609 | 6 | 268 | 0.0 | 0.0 | 0.00 | 0.00 | 0.00 | 79 | 1013.5 |
| 20260508040106 | 6 | 268 | 0.0 | 0.0 | 0.00 | 0.00 | 0.00 | 80 | 1013.4 |
| 20260508035605 | 6 | 268 | 0.0 | 0.0 | 0.00 | 0.00 | 0.00 | 80 | 1013.3 |
| 20260508035109 | 6 | 268 | 0.0 | 0.0 | 0.00 | 0.00 | 0.00 | 80 | 1013.4 |
| 20260508034609 | 5 | 268 | 0.0 | 0.0 | 0.00 | 0.00 | 0.00 | 80 | 1013.5 |
| 20260508034106 | 5 | 268 | 0.0 | 0.0 | 0.00 | 0.00 | 0.00 | 79 | 1013.5 |
| 20260508033609 | 5 | 268 | 0.0 | 0.0 | 0.00 | 0.00 | 0.00 | 79 | 1013.5 |
| 20260508033106 | 5 | 268 | 0.0 | 0.0 | 0.00 | 0.00 | 0.00 | 78 | 1013.5 |
| 20260508032606 | 5 | 268 | 0.0 | 0.0 | 0.00 | 0.00 | 0.00 | 78 | 1013.5 |
| 20260508032109 | 5 | 268 | 0.0 | 0.0 | 0.00 | 0.00 | 0.00 | 77 | 1013.6 |
| 20260508031609 | 5 | 268 | 0.0 | 0.0 | 0.00 | 0.00 | 0.00 | 76 | 1013.6 |
| 20260508031106 | 5 | 268 | 0.0 | 0.0 | 0.00 | 0.00 | 0.00 | 76 | 1013.4 |
| 20260508030609 | 5 | 268 | 0.0 | 0.0 | 0.00 | 0.00 | 0.00 | 75 | 1013.5 |
| 20260508030106 | 5 | 268 | 0.0 | 0.0 | 0.00 | 0.00 | 0.00 | 75 | 1013.7 |
| 20260508025606 | 5 | 268 | 0.0 | 0.0 | 0.00 | 0.00 | 0.00 | 75 | 1013.7 |
| 20260508025106 | 6 | 268 | 0.0 | 0.0 | 0.00 | 0.00 | 0.00 | 76 | 1013.6 |
| 20260508024609 | 6 | 268 | 0.0 | 0.0 | 0.00 | 0.00 | 0.00 | 76 | 1013.5 |
| 20260508024106 | 6 | 268 | 0.0 | 0.0 | 0.00 | 0.00 | 0.00 | 76 | 1013.6 |
| 20260508023606 | 6 | 268 | 0.0 | 0.0 | 0.00 | 0.00 | 0.00 | 76 | 1013.6 |
| 20260508023106 | 6 | 268 | 0.0 | 0.0 | 0.00 | 0.00 | 0.00 | 76 | 1013.6 |
| 20260508022606 | 6 | 268 | 0.0 | 0.0 | 0.00 | 0.00 | 0.00 | 75 | 1013.7 |
| 20260508022106 | 6 | 268 | 0.0 | 0.0 | 0.00 | 0.00 | 0.00 | 74 | 1013.6 |
| 20260508021606 | 6 | 268 | 0.0 | 0.0 | 0.00 | 0.00 | 0.00 | 73 | 1013.6 |
| 20260508021106 | 6 | 268 | 0.0 | 0.0 | 0.00 | 0.00 | 0.00 | 74 | 1013.6 |
| 20260508020609 | 6 | 268 | 0.0 | 0.0 | 0.00 | 0.00 | 0.00 | 73 | 1013.6 |
| 20260508020106 | 6 | 268 | 0.0 | 0.0 | 0.00 | 0.00 | 0.00 | 72 | 1013.7 |
| 20260508015611 | 6 | 268 | 0.0 | 0.0 | 0.00 | 0.00 | 0.00 | 70 | 1013.8 |
| 20260508015106 | 6 | 268 | 0.0 | 0.0 | 0.00 | 0.00 | 0.00 | 71 | 1013.8 |
| 20260508014606 | 6 | 268 | 0.0 | 0.0 | 0.00 | 0.00 | 0.00 | 70 | 1013.7 |
| 20260508014106 | 6 | 268 | 0.0 | 0.0 | 0.00 | 0.00 | 0.00 | 70 | 1013.7 |
| 20260508013606 | 7 | 268 | 0.0 | 0.0 | 0.00 | 0.00 | 0.00 | 69 | 1013.6 |
| 20260508013109 | 7 | 268 | 0.0 | 0.0 | 0.00 | 0.00 | 0.00 | 67 | 1013.6 |
| 20260508012609 | 7 | 268 | 0.0 | 0.0 | 0.00 | 0.00 | 0.00 | 66 | 1013.5 |
| 20260508012109 | 7 | 268 | 0.0 | 0.0 | 0.00 | 0.00 | 0.00 | 65 | 1013.4 |
| 20260508011609 | 7 | 268 | 0.0 | 0.0 | 0.00 | 0.00 | 0.00 | 63 | 1013.4 |
| 20260508011106 | 7 | 268 | 0.0 | 0.0 | 0.00 | 0.00 | 0.00 | 62 | 1013.4 |
| 20260508010605 | 8 | 268 | 0.0 | 0.0 | 0.00 | 0.00 | 0.00 | 61 | 1013.2 |
| 20260508010106 | 8 | 268 | 0.0 | 0.0 | 0.00 | 0.00 | 0.00 | 59 | 1013.4 |
| 20260508005606 | 8 | 268 | 0.0 | 0.0 | 0.00 | 0.00 | 0.00 | 57 | 1013.4 |
| 20260508005106 | 9 | 268 | 0.0 | 0.0 | 0.00 | 0.00 | 0.00 | 56 | 1013.2 |
| 20260508004606 | 9 | 268 | 0.0 | 0.0 | 0.00 | 0.00 | 0.00 | 55 | 1013.2 |
| 20260508004106 | 10 | 268 | 0.0 | 0.0 | 0.00 | 0.00 | 0.00 | 52 | 1013.1 |
| 20260508003606 | 10 | 268 | 0.0 | 0.0 | 0.00 | 0.00 | 0.00 | 50 | 1013.1 |
| 20260508003109 | 10 | 268 | 0.0 | 0.0 | 0.00 | 0.00 | 0.00 | 48 | 1012.9 |
| 20260508002606 | 11 | 268 | 0.0 | 0.0 | 0.00 | 0.00 | 0.00 | 46 | 1012.9 |
| 20260508002109 | 11 | 268 | 0.0 | 3.2 | 0.00 | 0.00 | 0.00 | 44 | 1012.8 |
| 20260508001609 | 11 | 268 | 0.0 | 0.0 | 0.00 | 0.00 | 0.00 | 42 | 1012.7 |
| 20260508001105 | 12 | 269 | 0.0 | 1.6 | 0.00 | 0.00 | 0.00 | 41 | 1012.7 |
| 20260508000606 | 12 | 268 | 0.0 | 0.0 | 0.00 | 0.00 | 0.00 | 40 | 1012.7 |
| 20260508000106 | 12 | 269 | 0.0 | 3.2 | 0.00 | 0.00 | 0.00 | 39 | 1012.8 |
| 20260507235606 | 12 | 269 | 3.2 | 8.0 | 0.00 | 0.00 | 0.00 | 38 | 1012.7 |
| 20260507235106 | 12 | 260 | 4.8 | 6.4 | 0.00 | 0.00 | 0.00 | 37 | 1012.7 |
| 20260507234606 | 12 | 265 | 0.0 | 6.4 | 0.00 | 0.00 | 0.00 | 38 | 1012.7 |
| 20260507234106 | 12 | 263 | 3.2 | 4.8 | 0.00 | 0.00 | 0.00 | 37 | 1012.7 |
| 20260507233610 | 12 | 263 | 0.0 | 6.4 | 0.00 | 0.00 | 0.00 | 38 | 1012.7 |
| 20260507233106 | 12 | 265 | 0.0 | 6.4 | 0.00 | 0.00 | 0.00 | 38 | 1012.6 |
| 20260507232606 | 12 | 264 | 4.8 | 9.7 | 0.00 | 0.00 | 0.00 | 37 | 1012.5 |
| 20260507232106 | 12 | 281 | 3.2 | 9.7 | 0.00 | 0.00 | 0.00 | 37 | 1012.6 |
| 20260507231606 | 12 | 309 | 6.4 | 16.1 | 0.00 | 0.00 | 0.00 | 35 | 1012.5 |
| 20260507231109 | 13 | 236 | 1.6 | 17.7 | 0.00 | 0.00 | 0.00 | 35 | 1012.5 |
| 20260507230606 | 13 | 297 | 9.7 | 19.3 | 0.00 | 0.00 | 0.00 | 35 | 1012.4 |
| 20260507230106 | 13 | 317 | 3.2 | 11.3 | 0.00 | 0.00 | 0.00 | 35 | 1012.8 |
| 20260507225609 | 13 | 312 | 3.2 | 16.1 | 0.00 | 0.00 | 0.00 | 35 | 1012.8 |
| 20260507225106 | 13 | 288 | 9.7 | 16.1 | 0.00 | 0.00 | 0.00 | 35 | 1012.8 |
| 20260507224606 | 13 | 263 | 6.4 | 20.9 | 0.00 | 0.00 | 0.00 | 36 | 1012.8 |
| 20260507224114 | 13 | 265 | 3.2 | 19.3 | 0.00 | 0.00 | 0.00 | 36 | 1012.8 |
| 20260507223606 | 13 | 282 | 4.8 | 16.1 | 0.00 | 0.00 | 0.00 | 36 | 1012.9 |
| 20260507223105 | 12 | 240 | 1.6 | 11.3 | 0.00 | 0.00 | 0.00 | 37 | 1013.0 |
| 20260507222606 | 12 | 254 | 3.2 | 14.5 | 0.00 | 0.00 | 0.00 | 39 | 1012.9 |
| 20260507222106 | 12 | 254 | 1.6 | 22.5 | 0.00 | 0.00 | 0.00 | 36 | 1013.0 |
| 20260507221606 | 13 | 333 | 9.7 | 17.7 | 0.00 | 0.00 | 0.00 | 35 | 1012.8 |
| 20260507221106 | 13 | 300 | 11.3 | 14.5 | 0.00 | 0.00 | 0.00 | 35 | 1012.8 |
| 20260507220609 | 13 | 252 | 1.6 | 11.3 | 0.00 | 0.00 | 0.00 | 37 | 1012.8 |
| 20260507220106 | 13 | 325 | 3.2 | 20.9 | 0.00 | 0.00 | 0.00 | 34 | 1012.8 |
| 20260507215609 | 13 | 281 | 4.8 | 20.9 | 0.00 | 0.00 | 0.00 | 35 | 1012.6 |
| 20260507215109 | 13 | 229 | 3.2 | 24.1 | 0.00 | 0.00 | 0.00 | 34 | 1012.5 |
| 20260507214606 | 13 | 288 | 0.0 | 25.7 | 0.00 | 0.00 | 0.00 | 36 | 1012.4 |
| 20260507214108 | 13 | 253 | 0.0 | 24.1 | 0.00 | 0.00 | 0.00 | 39 | 1012.5 |
| 20260507213606 | 13 | 240 | 6.4 | 24.1 | 0.00 | 0.00 | 0.00 | 38 | 1012.4 |
| 20260507213106 | 13 | 319 | 3.2 | 19.3 | 0.00 | 0.00 | 0.00 | 40 | 1012.3 |
| 20260507212609 | 13 | 260 | 3.2 | 17.7 | 0.00 | 0.00 | 0.00 | 38 | 1012.3 |
| 20260507212107 | 12 | 257 | 6.4 | 22.5 | 0.00 | 0.00 | 0.00 | 40 | 1012.3 |
| 20260507211606 | 13 | 294 | 4.8 | 17.7 | 0.00 | 0.00 | 0.00 | 38 | 1012.3 |
| 20260507211109 | 13 | 327 | 0.0 | 20.9 | 0.00 | 0.00 | 0.00 | 38 | 1012.2 |
| 20260507210605 | 13 | 206 | 4.8 | 20.9 | 0.00 | 0.00 | 0.00 | 38 | 1012.2 |
| 20260507210106 | 13 | 235 | 9.7 | 27.4 | 0.00 | 0.00 | 0.00 | 36 | 1012.1 |
| 20260507205609 | 13 | 269 | 19.3 | 33.8 | 0.00 | 0.00 | 0.00 | 37 | 1012.0 |
| 20260507205106 | 13 | 328 | 8.0 | 27.4 | 0.00 | 0.00 | 0.00 | 37 | 1011.9 |
| 20260507204606 | 13 | 253 | 9.7 | 24.1 | 0.00 | 0.00 | 0.00 | 36 | 1011.9 |
| 20260507204111 | 13 | 244 | 9.7 | 25.7 | 0.00 | 0.00 | 0.00 | 37 | 1011.9 |
| 20260507203606 | 13 | 315 | 9.7 | 20.9 | 0.00 | 0.00 | 0.00 | 37 | 1011.7 |
| 20260507203109 | 13 | 296 | 9.7 | 19.3 | 0.00 | 0.00 | 0.00 | 38 | 1011.7 |
| 20260507202606 | 13 | 313 | 9.7 | 22.5 | 0.00 | 0.00 | 0.00 | 39 | 1011.7 |
| 20260507202109 | 13 | 277 | 4.8 | 24.1 | 0.00 | 0.00 | 0.00 | 37 | 1011.9 |
| 20260507201606 | 13 | 278 | 6.4 | 27.4 | 0.00 | 0.00 | 0.00 | 39 | 1011.8 |
| 20260507201106 | 13 | 227 | 20.9 | 29.0 | 0.00 | 0.00 | 0.00 | 41 | 1011.8 |
| 20260507200609 | 13 | 338 | 9.7 | 27.4 | 0.00 | 0.00 | 0.00 | 41 | 1011.7 |
| 20260507200106 | 13 | 0 | 4.8 | 17.7 | 0.00 | 0.00 | 0.00 | 42 | 1011.6 |
| 20260507195608 | 13 | 297 | 1.6 | 17.7 | 0.00 | 0.00 | 0.00 | 41 | 1011.7 |
| 20260507195106 | 13 | 285 | 3.2 | 16.1 | 0.00 | 0.00 | 0.00 | 43 | 1011.8 |
| 20260507194607 | 13 | 255 | 6.4 | 20.9 | 0.00 | 0.00 | 0.00 | 41 | 1011.9 |
| 20260507194106 | 13 | 259 | 0.0 | 19.3 | 0.00 | 0.00 | 0.00 | 40 | 1012.0 |
| 20260507193606 | 13 | 267 | 4.8 | 30.6 | 0.00 | 0.00 | 0.00 | 44 | 1011.9 |
| 20260507193106 | 14 | 320 | 9.7 | 22.5 | 0.00 | 0.00 | 0.00 | 42 | 1011.8 |
| 20260507192606 | 13 | 320 | 4.8 | 24.1 | 0.00 | 0.00 | 0.00 | 44 | 1011.8 |
| 20260507192106 | 13 | 263 | 8.0 | 20.9 | 0.00 | 0.00 | 0.00 | 39 | 1011.8 |
| 20260507191606 | 13 | 227 | 1.6 | 14.5 | 0.00 | 0.00 | 0.00 | 45 | 1012.0 |
| 20260507191109 | 12 | 314 | 4.8 | 17.7 | 0.00 | 0.00 | 0.00 | 45 | 1012.0 |
| 20260507190606 | 13 | 311 | 1.6 | 22.5 | 0.00 | 0.00 | 0.00 | 44 | 1011.9 |
| 20260507190106 | 13 | 238 | 8.0 | 16.1 | 0.00 | 0.00 | 0.00 | 44 | 1012.0 |
| 20260507185606 | 13 | 264 | 0.0 | 9.7 | 0.00 | 0.00 | 0.00 | 40 | 1011.8 |
| 20260507185106 | 13 | 265 | 0.0 | 17.7 | 0.00 | 0.00 | 0.00 | 41 | 1012.0 |
| 20260507184606 | 13 | 282 | 0.0 | 20.9 | 0.00 | 0.00 | 0.00 | 40 | 1012.1 |
| 20260507184106 | 13 | 249 | 8.0 | 25.7 | 0.00 | 0.00 | 0.00 | 41 | 1011.9 |
| 20260507183606 | 13 | 345 | 3.2 | 16.1 | 0.00 | 0.00 | 0.00 | 40 | 1011.9 |
| 20260507183109 | 13 | 254 | 1.6 | 20.9 | 0.00 | 0.00 | 0.00 | 41 | 1011.9 |
| 20260507182606 | 13 | 250 | 9.7 | 19.3 | 0.00 | 0.00 | 0.00 | 45 | 1011.8 |
| 20260507182106 | 13 | 252 | 8.0 | 16.1 | 0.00 | 0.00 | 0.00 | 40 | 1011.8 |
| 20260507181606 | 13 | 275 | 4.8 | 20.9 | 0.00 | 0.00 | 0.00 | 40 | 1011.9 |
| 20260507181106 | 13 | 350 | 1.6 | 20.9 | 0.00 | 0.00 | 0.00 | 40 | 1011.8 |
| 20260507180606 | 13 | 242 | 20.9 | 20.9 | 0.00 | 0.00 | 0.00 | 42 | 1011.9 |
| 20260507180106 | 12 | 240 | 17.7 | 25.7 | 0.00 | 0.00 | 0.00 | 43 | 1012.0 |
| 20260507175609 | 12 | 213 | 9.7 | 24.1 | 0.00 | 0.00 | 0.00 | 43 | 1012.0 |
| 20260507175106 | 12 | 254 | 9.7 | 27.4 | 0.00 | 0.00 | 0.00 | 40 | 1012.0 |
| 20260507174606 | 12 | 278 | 8.0 | 22.5 | 0.00 | 0.00 | 0.00 | 41 | 1012.1 |
| 20260507174106 | 12 | 271 | 3.2 | 27.4 | 0.00 | 0.00 | 0.00 | 41 | 1012.3 |
| 20260507173606 | 12 | 242 | 25.7 | 32.2 | 0.00 | 0.00 | 0.00 | 37 | 1012.3 |
| 20260507173109 | 12 | 244 | 6.4 | 24.1 | 0.00 | 0.00 | 0.00 | 37 | 1012.3 |
| 20260507172606 | 12 | 288 | 22.5 | 27.4 | 0.00 | 0.00 | 0.00 | 40 | 1012.3 |
| 20260507172106 | 12 | 240 | 8.0 | 25.7 | 0.00 | 0.00 | 0.00 | 37 | 1012.4 |
| 20260507171608 | 12 | 248 | 19.3 | 24.1 | 0.00 | 0.00 | 0.00 | 37 | 1012.4 |
| 20260507171106 | 12 | 311 | 8.0 | 20.9 | 0.00 | 0.00 | 0.00 | 41 | 1012.3 |
| 20260507170606 | 12 | 309 | 14.5 | 32.2 | 0.00 | 0.00 | 0.00 | 41 | 1012.4 |
| 20260507170106 | 12 | 216 | 14.5 | 22.5 | 0.00 | 0.00 | 0.00 | 40 | 1012.4 |
| 20260507165606 | 12 | 256 | 6.4 | 20.9 | 0.00 | 0.00 | 0.00 | 40 | 1012.4 |
| 20260507165109 | 12 | 248 | 9.7 | 19.3 | 0.00 | 0.00 | 0.00 | 42 | 1012.5 |
| 20260507164606 | 12 | 248 | 6.4 | 22.5 | 0.00 | 0.00 | 0.00 | 41 | 1012.6 |
| 20260507164109 | 12 | 238 | 19.3 | 24.1 | 0.00 | 0.00 | 0.00 | 42 | 1012.6 |
| 20260507163605 | 12 | 222 | 11.3 | 22.5 | 0.00 | 0.00 | 0.00 | 41 | 1012.5 |
| 20260507163106 | 12 | 239 | 14.5 | 29.0 | 0.00 | 0.00 | 0.00 | 43 | 1012.4 |
| 20260507162606 | 12 | 252 | 8.0 | 22.5 | 0.00 | 0.00 | 0.00 | 41 | 1012.4 |
| 20260507162105 | 12 | 229 | 9.7 | 27.4 | 0.00 | 0.00 | 0.00 | 41 | 1012.4 |
| 20260507161606 | 12 | 246 | 16.1 | 24.1 | 0.00 | 0.00 | 0.00 | 42 | 1012.4 |
| 20260507161106 | 12 | 257 | 16.1 | 27.4 | 0.00 | 0.00 | 0.00 | 41 | 1012.5 |
| 20260507160606 | 12 | 261 | 8.0 | 22.5 | 0.00 | 0.00 | 0.00 | 44 | 1012.5 |
| 20260507160106 | 12 | 263 | 1.6 | 24.1 | 0.00 | 0.00 | 0.00 | 43 | 1012.3 |
| 20260507155609 | 12 | 153 | 6.4 | 19.3 | 0.00 | 0.00 | 0.00 | 42 | 1012.3 |
| 20260507155106 | 12 | 232 | 14.5 | 25.7 | 0.00 | 0.00 | 0.00 | 42 | 1012.2 |
| 20260507154606 | 12 | 250 | 6.4 | 14.5 | 0.00 | 0.00 | 0.00 | 42 | 1012.1 |
| 20260507154106 | 12 | 304 | 3.2 | 11.3 | 0.00 | 0.00 | 0.00 | 47 | 1012.1 |
| 20260507153606 | 11 | 281 | 1.6 | 17.7 | 0.00 | 0.00 | 0.00 | 45 | 1012.2 |
| 20260507153106 | 11 | 236 | 6.4 | 19.3 | 0.00 | 0.00 | 0.00 | 44 | 1012.2 |
| 20260507152609 | 11 | 246 | 6.4 | 24.1 | 0.00 | 0.00 | 0.00 | 43 | 1012.2 |
| 20260507152105 | 11 | 309 | 4.8 | 14.5 | 0.00 | 0.00 | 0.00 | 45 | 1012.2 |
| 20260507151606 | 11 | 272 | 9.7 | 19.3 | 0.00 | 0.00 | 0.00 | 46 | 1012.2 |
| 20260507151106 | 11 | 219 | 1.6 | 14.5 | 0.00 | 0.00 | 0.00 | 44 | 1012.2 |
| 20260507150606 | 11 | 246 | 8.0 | 20.9 | 0.00 | 0.00 | 0.00 | 44 | 1012.2 |
| 20260507150106 | 11 | 235 | 1.6 | 12.9 | 0.00 | 0.00 | 0.00 | 50 | 1012.1 |
| 20260507145606 | 11 | 221 | 1.6 | 24.1 | 0.00 | 0.00 | 0.00 | 47 | 1012.1 |
| 20260507145109 | 11 | 227 | 8.0 | 20.9 | 0.00 | 0.00 | 0.00 | 47 | 1012.2 |
| 20260507144605 | 11 | 249 | 14.5 | 19.3 | 0.00 | 0.00 | 0.00 | 49 | 1012.1 |
| 20260507144106 | 11 | 234 | 4.8 | 20.9 | 0.00 | 0.00 | 0.00 | 50 | 1012.2 |
| 20260507143606 | 10 | 263 | 1.6 | 19.3 | 0.00 | 0.00 | 0.00 | 49 | 1012.2 |
| 20260507143106 | 11 | 269 | 8.0 | 22.5 | 0.00 | 0.00 | 0.00 | 50 | 1012.2 |
| 20260507142606 | 11 | 238 | 6.4 | 16.1 | 0.00 | 0.03 | 0.00 | 52 | 1012.3 |
| 20260507142105 | 10 | 300 | 3.2 | 11.3 | 0.00 | 0.03 | 0.00 | 52 | 1012.3 |
| 20260507141606 | 10 | 247 | 1.6 | 16.1 | 0.00 | 0.03 | 0.00 | 54 | 1012.3 |
| 20260507141106 | 10 | 259 | 11.3 | 19.3 | 0.00 | 0.03 | 0.00 | 54 | 1012.4 |
| 20260507140606 | 10 | 241 | 9.7 | 19.3 | 0.00 | 0.03 | 0.00 | 53 | 1012.4 |
| 20260507140106 | 10 | 262 | 3.2 | 16.1 | 0.00 | 0.03 | 0.00 | 55 | 1012.3 |
| 20260507135606 | 10 | 249 | 8.0 | 16.1 | 0.00 | 0.03 | 0.00 | 57 | 1012.3 |
| 20260507135106 | 10 | 257 | 8.0 | 16.1 | 0.00 | 0.03 | 0.00 | 56 | 1012.3 |
| 20260507134609 | 10 | 268 | 8.0 | 9.7 | 0.00 | 0.03 | 0.00 | 57 | 1012.3 |
| 20260507134109 | 9 | 269 | 0.0 | 11.3 | 0.00 | 0.03 | 0.00 | 57 | 1012.5 |
| 20260507133606 | 9 | 267 | 8.0 | 16.1 | 0.00 | 0.03 | 0.00 | 56 | 1012.5 |
| 20260507133109 | 9 | 250 | 0.0 | 9.7 | 0.00 | 0.03 | 0.00 | 60 | 1012.6 |
| 20260507132606 | 8 | 249 | 3.2 | 14.5 | 0.00 | 0.03 | 0.00 | 59 | 1012.7 |
| 20260507132106 | 8 | 239 | 11.3 | 17.7 | 0.00 | 0.03 | 0.00 | 63 | 1012.7 |